GW6012 Weather Reports


Display with metric or nautical units.
time (UTC)temp
F
wind
direction
speed
MPH
gust
MPH
rain 1hr
in
rain 24hr
in
rain mn
in
humidity
%
barometer
mb
20260506091009 54 55 0.0 2.0 0.00 0.00 0.00 85 1018.8
20260506090510 54 55 0.0 2.0 0.00 0.00 0.00 85 1018.8
20260506090035 54 46 0.0 2.0 0.00 0.00 0.00 85 1018.9
20260506085511 54 67 0.0 1.0 0.00 0.00 0.00 85 1018.8
20260506085009 53 67 0.0 1.0 0.00 0.00 0.00 84 1018.8
20260506084526 53 67 0.0 2.0 0.00 0.00 0.00 84 1018.9
20260506084009 54 67 0.0 2.0 0.00 0.00 0.00 83 1019.0
20260506083506 54 67 0.0 2.0 0.00 0.00 0.00 83 1018.9
20260506083011 55 53 0.0 2.0 0.00 0.00 0.00 84 1018.9
20260506082506 55 53 0.0 2.0 0.00 0.00 0.00 83 1018.8
20260506082007 55 29 0.0 2.0 0.00 0.00 0.00 83 1018.9
20260506081518 55 28 0.0 3.0 0.00 0.00 0.00 83 1018.9
20260506081008 55 49 1.0 3.0 0.00 0.00 0.00 83 1018.9
20260506080509 55 46 0.0 3.0 0.00 0.00 0.00 83 1019.1
20260506073511 55 43 1.0 3.0 0.00 0.00 0.00 84 1018.8
20260506073028 55 42 1.0 3.0 0.00 0.00 0.00 84 1018.8
20260506072511 55 52 1.0 2.0 0.00 0.00 0.00 84 1018.7
20260506072008 55 51 1.0 2.0 0.00 0.00 0.00 84 1018.8
20260506071511 55 50 1.0 2.0 0.00 0.00 0.00 84 1018.7
20260506071007 55 36 0.0 2.0 0.00 0.00 0.00 84 1018.7
20260506070506 55 60 0.0 2.0 0.00 0.00 0.00 84 1018.6
20260506062511 55 57 0.0 2.0 0.00 0.00 0.00 83 1018.1
20260506062013 55 57 0.0 2.0 0.00 0.00 0.00 83 1018.2
20260506061520 56 57 0.0 2.0 0.00 0.00 0.00 83 1018.2
20260506061009 56 62 0.0 2.0 0.00 0.00 0.00 83 1018.1
20260506060507 56 62 0.0 2.0 0.00 0.00 0.00 82 1018.1
20260506051005 57 57 0.0 2.0 0.00 0.00 0.00 82 1017.9
20260506050511 57 98 0.0 2.0 0.00 0.00 0.00 82 1017.8
20260506045002 57 76 0.0 2.0 0.00 0.00 0.00 82 1017.7
20260506044506 57 88 0.0 2.0 0.00 0.00 0.00 82 1017.6
20260506044003 57 81 0.0 2.0 0.00 0.00 0.00 82 1017.6
20260506043503 57 71 0.0 2.0 0.00 0.00 0.00 82 1017.5
20260506043006 57 105 0.0 3.0 0.00 0.00 0.00 82 1017.4
20260506042505 58 92 0.0 3.0 0.00 0.00 0.00 81 1017.4
20260506042006 58 53 0.0 3.0 0.00 0.00 0.00 81 1017.3
20260506041509 58 84 1.0 3.0 0.00 0.00 0.00 80 1017.3
20260506041007 58 67 1.0 2.0 0.00 0.00 0.00 80 1017.2
20260506040505 58 86 1.0 3.0 0.00 0.00 0.00 80 1017.1
20260506040013 58 74 1.0 3.0 0.00 0.00 0.00 80 1017.0
20260506035507 58 78 1.0 4.0 0.00 0.00 0.00 79 1016.9
20260506035011 59 93 0.0 3.0 0.00 0.00 0.00 78 1016.8
20260506034517 59 146 0.0 2.0 0.00 0.00 0.00 78 1016.7
20260506034004 59 227 0.0 2.0 0.00 0.00 0.00 77 1016.6
20260506033503 59 227 0.0 2.0 0.00 0.00 0.00 77 1016.6
20260506033005 59 229 0.0 2.0 0.00 0.00 0.00 76 1016.5
20260506032503 60 211 0.0 2.0 0.00 0.00 0.00 75 1016.4
20260506032008 60 224 1.0 2.0 0.00 0.00 0.00 75 1016.3
20260506031508 60 173 0.0 2.0 0.00 0.00 0.00 75 1016.3
20260506031009 60 220 1.0 2.0 0.00 0.00 0.00 74 1016.1
20260506030506 60 223 1.0 2.0 0.00 0.00 0.00 74 1016.1
20260506030015 61 215 0.0 2.0 0.00 0.00 0.00 73 1016.1
20260506025506 61 207 1.0 3.0 0.00 0.00 0.00 72 1016.0
20260506025011 61 219 0.0 3.0 0.00 0.00 0.00 72 1015.8
20260506024537 61 125 0.0 2.0 0.00 0.00 0.00 71 1015.7
20260506024012 62 202 0.0 2.0 0.00 0.00 0.00 71 1015.6
20260506023508 62 219 1.0 3.0 0.00 0.00 0.00 70 1015.6
20260506023004 62 215 1.0 3.0 0.00 0.00 0.00 69 1015.5
20260506022503 62 157 1.0 3.0 0.00 0.00 0.00 69 1015.4
20260506022004 63 195 0.0 3.0 0.00 0.00 0.00 70 1015.4
20260506021507 63 219 1.0 2.0 0.00 0.00 0.00 69 1015.3
20260506021004 63 209 0.0 2.0 0.00 0.00 0.00 69 1015.3
20260506020504 63 194 0.0 3.0 0.00 0.00 0.00 69 1015.3
20260506020009 63 216 0.0 4.0 0.00 0.00 0.00 69 1015.3
20260506015508 63 230 2.0 4.0 0.00 0.00 0.00 69 1015.2
20260506015008 63 209 1.0 4.0 0.00 0.00 0.00 68 1015.2
20260506014514 63 220 1.0 4.0 0.00 0.00 0.00 69 1015.2
20260506014010 63 215 1.0 4.0 0.00 0.00 0.00 69 1015.2
20260506013509 64 192 2.0 4.0 0.00 0.00 0.00 69 1015.1
20260506013021 64 134 1.0 4.0 0.00 0.00 0.00 69 1015.1
20260506012507 64 225 2.0 5.0 0.00 0.00 0.00 69 1015.2
20260506012003 64 184 1.0 5.0 0.00 0.00 0.00 69 1015.3
20260506011506 64 229 2.0 5.0 0.00 0.00 0.00 1015.2
20260506011006 64 208 2.0 5.0 0.00 0.00 0.00 1015.2
20260506010502 64 191 2.0 5.0 0.00 0.00 0.00 1015.1
20260506010008 64 224 2.0 5.0 0.00 0.00 0.00 1015.1
20260506005505 64 204 1.0 6.0 0.00 0.00 0.00 68 1015.2
20260506005007 64 200 2.0 6.0 0.00 0.00 0.00 68 1015.1
20260506004512 64 215 2.0 7.0 0.00 0.00 0.00 67 1015.1
20260506004005 64 224 2.0 7.0 0.00 0.00 0.00 68 1015.1
20260506003509 63 211 2.0 5.0 0.00 0.00 0.00 69 1015.1
20260506003020 63 212 3.0 8.0 0.00 0.00 0.00 68 1015.1
20260506002511 63 212 3.0 8.0 0.00 0.00 0.00 68 1015.1
20260506002010 64 213 2.0 7.0 0.00 0.00 0.00 68 1015.1
20260506001524 64 213 3.0 7.0 0.00 0.00 0.00 68 1015.1
20260506001003 64 207 2.0 7.0 0.00 0.00 0.00 67 1015.1
20260506000506 65 207 3.0 8.0 0.00 0.00 0.00 67 1015.1
20260506000008 65 211 3.0 9.0 0.00 0.00 0.00 66 1015.0
20260505235505 66 296 3.0 9.0 0.00 0.00 0.00 64 1015.0
20260505235005 67 200 4.0 9.0 0.00 0.00 0.00 63 1014.9
20260505234512 67 207 4.0 9.0 0.00 0.00 0.00 64 1014.9
20260505234006 67 240 5.0 9.0 0.00 0.00 0.00 62 1014.9
20260505233507 68 232 3.0 7.0 0.00 0.00 0.00 62 1014.9
20260505233015 68 284 1.0 7.0 0.00 0.00 0.00 64 1014.9
20260505232512 66 215 3.0 7.0 0.00 0.00 0.00 64 1014.9
20260505232006 66 352 2.0 7.0 0.00 0.00 0.00 62 1014.9
20260505231524 67 29 2.0 9.0 0.00 0.00 0.00 62 1014.8
20260505231012 66 212 4.0 11.0 0.00 0.00 0.00 62 1014.8
20260505230509 67 238 4.0 11.0 0.00 0.00 0.00 61 1014.8
20260505230007 68 290 3.0 11.0 0.00 0.00 0.00 60 1014.9
20260505225504 68 246 3.0 11.0 0.00 0.00 0.00 59 1014.9
20260505225007 68 181 4.0 8.0 0.00 0.00 0.00 58 1014.9
20260505224510 69 304 4.0 9.0 0.00 0.00 0.00 59 1015.0
20260505224007 69 263 4.0 13.0 0.00 0.00 0.00 59 1015.1
20260505223510 68 273 5.0 13.0 0.00 0.00 0.00 61 1015.1
20260505223019 68 98 3.0 11.0 0.00 0.00 0.00 62 1015.2
20260505222509 67 232 4.0 10.0 0.00 0.00 0.00 63 1015.3
20260505222009 67 286 3.0 10.0 0.00 0.00 0.00 63 1015.3
20260505221523 68 227 4.0 10.0 0.00 0.00 0.00 62 1015.3
20260505221010 67 229 4.0 12.0 0.00 0.00 0.00 61 1015.3
20260505220509 67 203 6.0 12.0 0.00 0.00 0.00 61 1015.4
20260505220025 66 219 4.0 10.0 0.00 0.00 0.00 60 1015.4
20260505215509 67 190 4.0 11.0 0.00 0.00 0.00 60 1015.6
20260505215003 67 268 4.0 11.0 0.00 0.00 0.00 61 1015.6
20260505214508 68 269 4.0 11.0 0.00 0.00 0.00 57 1015.6
20260505214007 70 222 3.0 11.0 0.00 0.00 0.00 57 1015.7
20260505213507 69 223 5.0 11.0 0.00 0.00 0.00 55 1015.8
20260505213018 69 198 4.0 11.0 0.00 0.00 0.00 55 1015.9
20260505212507 69 217 4.0 11.0 0.00 0.00 0.00 56 1015.9
20260505212011 67 205 4.0 10.0 0.00 0.00 0.00 59 1015.9
20260505211521 68 218 3.0 9.0 0.00 0.00 0.00 56 1016.0
20260505211009 68 262 3.0 9.0 0.00 0.00 0.00 60 1016.0
20260505210510 67 238 3.0 10.0 0.00 0.00 0.00 60 1016.0
20260505210024 67 271 3.0 10.0 0.00 0.00 0.00 59 1016.0
20260505205513 67 220 3.0 9.0 0.00 0.00 0.00 57 1016.0
20260505205014 67 282 3.0 11.0 0.00 0.00 0.00 55 1016.0
20260505204527 68 207 4.0 12.0 0.00 0.00 0.00 56 1016.0
20260505204008 69 196 3.0 12.0 0.00 0.00 0.00 54 1015.9
20260505203504 69 202 3.0 12.0 0.00 0.00 0.00 57 1016.0
20260505203013 67 284 4.0 12.0 0.00 0.00 0.00 58 1016.1
20260505202507 66 211 4.0 9.0 0.00 0.00 0.00 58 1016.0
20260505202008 66 250 3.0 15.0 0.00 0.00 0.00 58 1016.1
20260505201517 67 295 4.0 15.0 0.00 0.00 0.00 57 1016.0
20260505201008 67 294 3.0 11.0 0.00 0.00 0.00 57 1016.0
20260505200509 67 185 4.0 8.0 0.00 0.00 0.00 55 1016.1
20260505200022 68 170 3.0 14.0 0.00 0.00 0.00 54 1016.1
20260505195505 69 227 5.0 13.0 0.00 0.00 0.00 54 1016.0
20260505195003 68 360 2.0 12.0 0.00 0.00 0.00 56 1016.0
20260505194506 68 223 2.0 8.0 0.00 0.00 0.00 54 1016.1
20260505194007 68 239 3.0 8.0 0.00 0.00 0.00 56 1016.1
20260505193508 68 207 4.0 11.0 0.00 0.00 0.00 55 1016.1
20260505193013 68 215 4.0 11.0 0.00 0.00 0.00 56 1016.1
20260505192511 67 205 2.0 8.0 0.00 0.00 0.00 56 1016.1
20260505192009 67 230 2.0 8.0 0.00 0.00 0.00 57 1016.2
20260505191519 66 221 3.0 7.0 0.00 0.00 0.00 56 1016.2
20260505191008 67 219 2.0 8.0 0.00 0.00 0.00 54 1016.2
20260505190507 67 218 2.0 8.0 0.00 0.00 0.00 54 1016.2
20260505190027 68 221 3.0 8.0 0.00 0.00 0.00 54 1016.1
20260505185512 67 222 3.0 8.0 0.00 0.00 0.00 55 1016.1
20260505185010 67 211 4.0 10.0 0.00 0.00 0.00 56 1016.1
20260505184510 67 204 5.0 10.0 0.00 0.00 0.00 56 1016.1
20260505184004 67 211 3.0 7.0 0.00 0.00 0.00 56 1016.1
20260505183503 67 251 4.0 7.0 0.00 0.00 0.00 54 1016.0
20260505183010 67 215 3.0 8.0 0.00 0.00 0.00 54 1016.0
20260505182507 68 246 4.0 8.0 0.00 0.00 0.00 52 1015.9
20260505182009 68 240 2.0 6.0 0.00 0.00 0.00 52 1015.9
20260505181513 68 9 3.0 8.0 0.00 0.00 0.00 52 1015.8
20260505181009 67 205 4.0 8.0 0.00 0.00 0.00 54 1015.9
20260505180508 67 224 3.0 8.0 0.00 0.00 0.00 55 1016.0
20260505180022 67 192 3.0 8.0 0.00 0.00 0.00 53 1015.9
20260505175510 67 209 3.0 8.0 0.00 0.00 0.00 55 1015.8
20260505175010 67 223 1.0 6.0 0.00 0.00 0.00 54 1015.9
20260505174524 67 186 1.0 6.0 0.00 0.00 0.00 56 1015.9
20260505174013 66 250 2.0 6.0 0.00 0.00 0.00 57 1015.8
20260505173509 66 227 2.0 6.0 0.00 0.00 0.00 58 1015.8
20260505173010 66 213 1.0 5.0 0.00 0.00 0.00 59 1015.9
20260505172507 65 196 2.0 5.0 0.00 0.00 0.00 60 1015.8
20260505172008 63 18 1.0 3.0 0.00 0.00 0.00 61 1015.8
20260505171512 63 111 1.0 3.0 0.00 0.00 0.00 62 1015.7
20260505171006 64 114 1.0 4.0 0.00 0.00 0.00 63 1015.7
20260505170509 64 300 1.0 4.0 0.00 0.00 0.00 64 1015.6
20260505170020 63 173 2.0 4.0 0.00 0.00 0.00 65 1015.7
20260505165509 64 264 1.0 2.0 0.00 0.00 0.00 64 1015.7
20260505165010 64 317 1.0 6.0 0.00 0.00 0.00 66 1015.6
20260505164526 64 166 1.0 6.0 0.00 0.00 0.00 65 1015.6
20260505164014 63 194 2.0 6.0 0.00 0.00 0.00 70 1015.5
20260505163510 63 229 1.0 4.0 0.00 0.00 0.00 69 1015.5
20260505163028 62 211 2.0 4.0 0.00 0.00 0.00 69 1015.5
20260505162505 61 223 2.0 3.0 0.00 0.00 0.00 71 1015.5
20260505162007 60 84 0.0 3.0 0.00 0.00 0.00 72 1015.5
20260505161510 60 138 1.0 4.0 0.00 0.00 0.00 73 1015.5
20260505161007 60 211 1.0 4.0 0.00 0.00 0.00 71 1015.4
20260505160509 61 222 0.0 3.0 0.00 0.00 0.00 72 1015.4
20260505153026 58 171 0.0 2.0 0.00 0.00 0.00 79 1015.3
20260505152508 58 214 0.0 2.0 0.00 0.00 0.00 80 1015.4
20260505152013 57 215 0.0 2.0 0.00 0.00 0.00 80 1015.3
20260505151511 56 46 0.0 2.0 0.00 0.00 0.00 81 1015.2
20260505151007 56 44 0.0 2.0 0.00 0.00 0.00 81 1015.3
20260505150507 56 41 0.0 2.0 0.00 0.00 0.00 81 1015.3
20260505140504 53 238 0.0 2.0 0.00 0.00 0.00 84 1015.0
20260505125009 53 235 0.0 2.0 0.00 0.00 0.00 85 1014.8
20260505124522 53 334 0.0 2.0 0.00 0.00 0.00 85 1014.9
20260505124007 53 334 0.0 1.0 0.00 0.00 0.00 85 1014.9
20260505123514 52 334 0.0 1.0 0.00 0.00 0.00 85 1015.0
20260505123028 52 334 0.0 0.0 0.00 0.00 0.00 85 1015.0
20260505122513 52 334 0.0 0.0 0.00 0.00 0.00 85 1015.0
20260505122010 52 334 0.0 0.0 0.00 0.00 0.00 85 1015.0
20260505121533 52 334 0.0 2.0 0.00 0.00 0.00 85 1015.0
20260505121009 52 334 0.0 2.0 0.00 0.00 0.00 85 1015.1
20260505120511 53 334 0.0 2.0 0.00 0.00 0.00 84 1015.0
20260505120040 53 334 0.0 2.0 0.00 0.00 0.00 84 1015.0
20260505115509 53 334 0.0 2.0 0.00 0.00 0.00 84 1015.0
20260505115009 53 334 0.0 2.0 0.00 0.00 0.00 84 1015.0
20260505114520 53 333 0.0 2.0 0.00 0.00 0.00 85 1015.0
20260505114009 53 334 0.0 2.0 0.00 0.00 0.00 85 1014.9
20260505113508 53 333 0.0 0.0 0.00 0.00 0.00 85 1014.9
20260505113019 53 333 0.0 0.0 0.00 0.00 0.00 84 1015.0
20260505112509 53 333 0.0 0.0 0.00 0.00 0.00 84 1014.9
20260505112006 53 333 0.0 0.0 0.00 0.00 0.00 84 1015.0
20260505111513 53 333 0.0 1.0 0.00 0.00 0.00 84 1015.0
20260505111003 54 333 0.0 2.0 0.00 0.00 0.00 84 1015.1
20260505110502 54 333 0.0 2.0 0.00 0.00 0.00 84 1015.1
20260505102004 54 352 0.0 2.0 0.00 0.00 0.00 83 1015.1
20260505101511 54 9 0.0 2.0 0.00 0.00 0.00 83 1015.1
20260505101007 54 360 0.0 2.0 0.00 0.00 0.00 82 1015.1
20260505100504 54 46 0.0 2.0 0.00 0.00 0.00 82 1015.1
20260505100006 54 51 0.0 2.0 0.00 0.00 0.00 81 1015.1
20260505095504 55 51 0.0 2.0 0.00 0.00 0.00 81 1015.1
20260505095003 55 51 0.0 2.0 0.00 0.00 0.00 82 1015.1
20260505094505 55 51 0.0 2.0 0.00 0.00 0.00 81 1015.2
20260505094003 55 51 0.0 1.0 0.00 0.00 0.00 81 1015.2
20260505093504 55 51 0.0 1.0 0.00 0.00 0.00 80 1015.3
20260505093005 56 51 0.0 0.0 0.00 0.00 0.00 80 1015.3
20260505092503 56 51 0.0 0.0 0.00 0.00 0.00 80 1015.3
20260505092005 56 51 0.0 0.0 0.00 0.00 0.00 79 1015.4
20260505091507 56 51 0.0 2.0 0.00 0.00 0.00 79 1015.5